Weather History for Mackall AAF, NC

Change the Weather History Date:

Wednesday, November 6, 2013

  Actual Average Record
Temperature  
Mean Temperature 59 °F -  
Max Temperature 72 °F 67 °F 82 °F (2003)
Min Temperature 46 °F 44 °F 30 °F (2001)
Degree Days  
Heating Degree Days 6    
Growing Degree Days 9 (Base 50)    
Moisture  
Dew Point 52 °F    
Average Humidity 79    
Maximum Humidity 98    
Minimum Humidity 52    
Precipitation  
Precipitation 0.00 in - - ()
Sea Level Pressure  
Sea Level Pressure 30.28 in    
Wind  
Wind Speed 4 mph (ENE)    
Max Wind Speed 8 mph    
Max Gust Speed 17 mph    
Visibility 11 miles    
Events Rain    
Averages and records for this station are not official NWS values.
T = Trace of Precipitation, MM = Missing Value Source: NWS Daily Summary

Daily Weather History Graph

Daily Weather History Graph

Search for Another Location

Airport:

Trip Planner

Search our weather history database for the weather conditions in past years. The results will help you decide how hot, cold, wet, or windy it might be!

Date:

Astronomy

Nov. 06, 2013 Rise Set
Actual Time 6:43 AM EST 5:18 PM EST
Civil Twilight 6:17 AM EST 5:45 PM EST
Nautical Twilight 5:47 AM EST 6:15 PM EST
Astronomical Twilight 5:17 AM EST 6:45 PM EST
Moon 9:54 AM EST (11/6) 8:24 PM EST (11/6)
Length of Visible Light 11h 27m
Length of Day
10h 34m
Waxing Crescent, 13% of the Moon is Illuminated
Nov 6
Waxing Crescent
Nov 10
First Quarter
Nov 17
Full
Nov 25
Last Quarter
Dec 2
New

Hourly Weather History & Observations

Time (EST) Temp. Windchill Dew Point Humidity Pressure Visibility Wind Dir Wind Speed Gust Speed Precip Events Conditions
12:56 AM 50.9 °F - 47.5 °F 88% 30.42 in 12.0 mi North 3.5 mph - N/A   Clear
1:56 AM 47.5 °F - 45.9 °F 94% 30.40 in 12.0 mi North 3.5 mph - N/A   Clear
2:56 AM 47.5 °F - 46.4 °F 96% 30.39 in 12.0 mi North 5.8 mph - N/A   Clear
3:56 AM 48.2 °F - 47.3 °F 97% 30.37 in 12.0 mi North 5.8 mph - N/A   Clear
4:56 AM 47.5 °F - 46.4 °F 96% 30.37 in 12.0 mi North 3.5 mph - N/A   Clear
5:56 AM 46.4 °F 43.5 °F 45.7 °F 97% 30.37 in 9.0 mi North 5.8 mph - N/A   Clear
6:56 AM 46.0 °F 43.9 °F 45.5 °F 98% 30.37 in 9.0 mi North 4.6 mph - N/A   Clear
7:56 AM 49.8 °F - 48.6 °F 95% 30.38 in 12.0 mi North 6.9 mph - N/A   Clear
8:56 AM 54.3 °F - 48.4 °F 80% 30.37 in 12.0 mi NNE 6.9 mph - N/A   Clear
9:56 AM 60.4 °F - 48.9 °F 66% 30.37 in 12.0 mi East 5.8 mph - N/A   Clear
10:56 AM 65.7 °F - 49.1 °F 55% 30.35 in 12.0 mi NE 8.1 mph - N/A   Clear
11:33 AM 68.0 °F - 50.0 °F 52% 30.32 in 2.8 mi ENE 5.8 mph - N/A   Clear
11:38 AM 68.0 °F - 50.0 °F 52% 30.32 in 5.0 mi ENE 5.8 mph - N/A   Clear
11:56 AM 68.2 °F - 50.5 °F 53% 30.32 in 12.0 mi Variable 4.6 mph - N/A   Clear
12:56 PM 70.7 °F - 52.5 °F 52% 30.28 in 12.0 mi SE 6.9 mph 12.7 mph N/A   Clear
1:56 PM 72.0 °F - 53.2 °F 52% 30.26 in 12.0 mi ESE 5.8 mph 17.3 mph N/A   Clear
2:56 PM 72.3 °F - 54.1 °F 53% 30.23 in 12.0 mi East 5.8 mph - N/A   Clear
3:56 PM 71.1 °F - 54.1 °F 55% 30.23 in 12.0 mi East 4.6 mph - N/A   Partly Cloudy
4:56 PM 69.1 °F - 55.9 °F 63% 30.21 in 12.0 mi ENE 3.5 mph - N/A   Mostly Cloudy
5:56 PM 64.8 °F - 56.7 °F 75% 30.22 in 12.0 mi NE 2.3 mph - N/A   Mostly Cloudy
6:56 PM 59.0 °F - 55.9 °F 90% 30.21 in 12.0 mi Calm Calm - N/A   Mostly Cloudy
7:56 PM 58.8 °F - 55.8 °F 90% 30.20 in 12.0 mi South 2.3 mph - N/A   Mostly Cloudy
8:56 PM 57.6 °F - 55.2 °F 92% 30.19 in 12.0 mi SSE 2.3 mph - N/A   Partly Cloudy
9:56 PM 56.5 °F - 55.2 °F 96% 30.18 in 12.0 mi Variable 1.2 mph - N/A   Mostly Cloudy
10:45 PM 57.2 °F - 55.4 °F 94% 30.15 in 12.0 mi WNW 1.2 mph - N/A Rain Light Rain
10:56 PM 58.3 °F - 56.3 °F 93% 30.16 in 12.0 mi South 1.2 mph - N/A Rain Light Rain Showers
11:02 PM 59.0 °F - 57.2 °F 94% 30.15 in 12.0 mi SE 2.3 mph - N/A   Overcast
11:56 PM 60.4 °F - 57.6 °F 90% 30.14 in 12.0 mi SSE 3.5 mph - N/A   Overcast